CAPE
42 0 0 0 0 0 0 0 0 0 0 0 0 0 0 0 30 128 206 300 1203 1049 1064 1335 1379 1094 727 479 378 235 152 128 180 141 29 9 0 0 0 0 4 16 9 48 72 85 85 79 51
0 0 0 0 0 0 0 0 0 0 0 0 0 0 0 0 138 64 230 330 970 1086 905 828 1215 1084 611 519 242 58 10 0 0 62 73 28 19 0 5 9 3 1 2 9 39 27 19 6 4
0 0 0 0 0 0 0 0 2 0 0 0 0 0 0 34 69 182 308 390 855 995 836 863 1193 1053 729 381 143 23 0 0 0 8 35 43 9 0 8 0 0 0 0 0 0 0 0 1 0
0 0 0 0 0 0 0 0 0 0 0 0 0 0 0 23 15 359 189 450 664 844 837 999 1197 1083 837 207 41 4 0 0 2 16 8 9 2 0 0 0 0 0 0 0 0 0 0 0 0
0 0 0 0 0 0 0 0 0 0 0 0 0 0 18 58 262 356 283 526 630 861 926 908 1273 1035 687 141 49 20 0 0 2 0 0 0 1 0 0 0 0 0 0 0 0 0 0 0 0
0 0 0 0 0 0 0 0 0 0 0 0 0 0 77 66 292 455 358 543 680 1095 989 813 968 902 707 408 136 58 0 4 4 5 2 0 1 0 0 0 0 0 0 0 0 0 0 0 0
0 0 0 0 0 0 0 0 0 0 0 0 0 0 30 79 456 572 461 558 679 1081 1020 739 717 674 614 559 434 187 63 88 78 49 36 56 10 0 0 0 0 0 0 0 0 0 0 0 0
0 0 0 0 0 0 0 0 0 0 0 0 0 0 3 270 602 636 581 619 756 817 965 880 745 572 457 404 508 378 189 83 109 84 33 51 55 36 1 21 0 0 0 0 0 0 0 0 0
0 0 0 0 0 0 0 0 0 0 0 0 0 0 0 106 670 682 639 644 840 777 933 955 820 638 512 414 387 328 159 100 59 28 0 0 2 9 3 0 4 8 0 0 1 3 0 0 0
0 0 0 0 0 0 0 0 0 0 0 0 0 0 0 0 502 779 719 753 868 890 688 855 865 766 670 660 332 145 24 14 4 0 0 0 0 0 0 0 0 7 7 8 0 0 0 0 4
0 0 0 0 0 0 0 0 0 0 0 0 0 0 0 0 38 615 675 745 878 963 873 737 995 919 657 734 689 273 63 0 0 0 0 0 2 0 0 0 0 0 0 0 0 0 0 0 0
0 0 0 0 0 0 0 0 0 0 0 0 0 0 0 0 0 136 536 523 772 950 1035 906 931 1115 849 791 701 788 233 90 0 0 0 0 0 0 0 0 0 0 0 2 1 2 0 0 0
0 0 0 0 0 0 0 0 0 0 0 0 0 0 0 0 0 0 30 281 415 741 1032 1054 997 1101 1146 830 801 554 317 312 84 0 0 0 0 0 0 0 0 0 0 5 0 0 0 0 0
3 3 0 0 0 0 0 0 0 0 0 0 0 0 0 0 0 0 0 0 105 271 953 1141 1101 1070 1120 1212 846 858 593 429 250 135 0 0 0 0 0 0 4 7 0 0 0 0 0 0 0
3 0 0 0 0 0 0 0 0 0 0 0 0 0 0 0 0 0 0 0 0 152 327 905 1139 1123 1315 1164 1189 1039 996 610 558 321 55 0 0 16 9 8 13 7 4 0 0 0 0 0 0
0 0 0 0 0 0 0 0 0 0 0 0 0 0 0 0 0 0 0 0 0 0 155 378 872 1121 1196 1403 1114 1116 1191 830 660 421 314 11 68 148 70 47 29 2 4 0 0 0 0 0 0
0 0 0 0 0 0 0 0 0 0 0 0 0 0 0 0 0 0 0 0 0 0 0 67 460 990 1205 1225 1393 1107 1171 799 992 588 471 178 182 271 169 111 5 0 0 0 0 0 0 0 0
0 0 0 0 0 0 0 0 0 0 0 0 0 0 0 0 0 0 0 0 0 0 0 0 38 386 833 1202 1294 1393 1043 1131 731 839 607 448 376 337 245 11 0 0 0 0 0 0 0 0 0
0 0 0 0 0 0 0 0 0 0 0 0 0 0 0 0 0 0 0 0 0 0 0 0 0 0 0 492 1163 1312 1107 1095 1335 817 677 524 442 393 246 58 4 0 26 0 0 3 0 0 0
0 0 0 0 0 0 0 0 0 0 0 0 0 0 0 0 0 0 0 0 0 0 0 0 0 0 0 1 667 1132 1119 1093 1139 1042 894 690 605 454 279 157 80 76 123 8 0 0 0 0 0
0 0 0 0 0 0 0 0 0 0 0 0 0 0 0 0 0 0 0 0 0 0 0 0 0 0 0 1 440 962 1052 976 1105 1087 991 897 706 621 377 233 154 182 136 30 1 0 0 0 0
0 0 0 0 0 0 0 0 0 0 0 0 0 0 0 0 0 0 0 0 0 0 0 0 0 0 0 61 462 863 987 982 1064 912 942 785 568 468 425 309 201 176 185 22 4 0 0 0 0
0 0 0 0 0 0 0 0 0 0 0 0 0 0 0 0 0 0 0 0 0 0 0 0 0 0 0 14 471 685 851 883 881 644 630 765 686 554 562 479 237 217 149 40 17 0 0 0 0
0 0 0 0 0 0 0 0 0 0 0 0 0 0 0 0 0 0 0 0 0 0 0 0 0 0 0 223 606 702 785 743 740 649 602 481 434 413 494 372 314 202 86 22 2 0 0 0 0
0 0 0 0 0 0 0 0 0 0 0 0 0 0 0 0 0 0 0 0 0 0 0 0 0 0 5 555 461 596 589 442 261 152 82 25 123 362 633 435 196 231 161 2 0 0 0 0 0
0 0 0 0 0 0 0 0 0 0 0 0 0 0 0 0 0 0 0 0 0 0 0 0 0 5 93 477 405 432 327 99 1 2 0 26 97 86 489 286 182 227 42 0 0 0 0 0 0
0 0 0 0 0 0 0 0 0 0 0 0 0 0 0 0 0 0 0 0 0 0 0 0 0 18 121 290 338 221 53 0 0 0 7 71 210 258 411 121 182 18 25 0 0 0 0 0 0
0 0 0 0 0 0 0 0 0 0 0 0 0 0 0 0 0 0 0 0 0 0 0 0 1 39 60 92 24 0 0 0 0 8 117 293 420 471 303 104 100 21 5 0 0 0 0 0 0
0 0 0 0 0 0 0 0 0 0 0 0 0 0 0 0 0 0 0 0 0 0 0 0 0 60 70 15 4 2 0 0 10 105 250 297 350 145 164 11 9 3 0 0 0 0 0 0 0
0 0 0 0 0 0 0 0 0 0 0 0 0 0 0 0 0 0 0 0 0 0 0 18 16 26 48 6 1 2 4 25 211 231 289 366 149 99 21 43 1 0 0 0 0 0 0 0 0
CIN
-132 -0 -0 -0 -0 -0 -0 -0 -0 -0 -0 -0 -0 -0 -0 -0 -43 -92 -173 -155 -133 -203 -166 -113 -87 -97 -125 -143 -143 -142 -135 -122 -85 -89 -2 -0 -0 -0 -0 -0 -0 -0 -0 -0 -0 -0 -0 -0 -0
-0 -0 -0 -0 -0 -0 -0 -0 -0 -0 -0 -0 -0 -0 -0 -0 -103 -169 -165 -165 -108 -171 -186 -170 -114 -99 -139 -138 -168 -220 -140 -0 -0 -102 -128 -0 -0 -0 -0 -0 -0 -0 -0 -0 -0 -9 -13 -16 -0
-0 -0 -0 -0 -0 -0 -0 -0 -2 -0 -0 -0 -0 -0 -0 -23 -82 -142 -118 -165 -117 -157 -165 -146 -98 -92 -114 -149 -204 -291 -0 -0 -0 -0 -0 -4 -1 -0 -0 -0 -0 -0 -0 -0 -0 -0 -0 -0 -0
-0 -0 -0 -0 -0 -0 -0 -0 -0 -0 -0 -0 -0 -0 -0 -53 -8 -132 -176 -135 -120 -126 -172 -129 -81 -70 -91 -189 -285 -132 -0 -0 -0 -0 -1 -4 -1 -0 -0 -0 -0 -0 -0 -0 -0 -0 -0 -0 -0
-0 -0 -0 -0 -0 -0 -0 -0 -0 -0 -0 -0 -0 -0 -28 -97 -102 -132 -153 -127 -100 -98 -120 -149 -61 -75 -107 -212 -276 -333 -0 -0 -0 -0 -0 -0 -0 -0 -0 -0 -0 -0 -0 -0 -0 -0 -0 -0 -0
-0 -0 -0 -0 -0 -0 -0 -0 -0 -0 -0 -0 -0 -0 -32 -87 -87 -124 -140 -93 -75 -86 -108 -135 -111 -95 -112 -153 -222 -282 -0 -0 -0 -0 -0 -0 -0 -0 -0 -0 -0 -0 -0 -0 -0 -0 -0 -0 -0
-0 -0 -0 -0 -0 -0 -0 -0 -0 -0 -0 -0 -0 -0 -21 -54 -75 -89 -110 -76 -65 -64 -124 -156 -149 -135 -131 -125 -143 -198 -267 -238 -237 -192 -201 -227 -110 -0 -0 -0 -0 -0 -0 -0 -0 -0 -0 -0 -0
-0 -0 -0 -0 -0 -0 -0 -0 -0 -0 -0 -0 -0 -0 -16 -38 -76 -70 -80 -63 -49 -50 -126 -124 -127 -136 -151 -161 -125 -148 -189 -232 -208 -214 -254 -234 -212 -208 -11 -212 -0 -0 -0 -0 -0 -0 -0 -0 -0
-0 -0 -0 -0 -0 -0 -0 -0 -0 -0 -0 -0 -0 -0 -0 -49 -56 -60 -63 -60 -36 -60 -46 -131 -129 -127 -139 -144 -151 -160 -203 -222 -240 -218 -0 -0 -88 -246 -190 -0 -261 -232 -0 -0 -73 -212 -0 -0 -0
-0 -0 -0 -0 -0 -0 -0 -0 -0 -0 -0 -0 -0 -0 -0 -0 -39 -51 -62 -62 -39 -55 -74 -41 -106 -107 -95 -98 -157 -213 -333 -352 -78 -0 -0 -0 -0 -0 -0 -0 -0 -250 -237 -193 -0 -0 -0 -0 -6
-0 -0 -0 -0 -0 -0 -0 -0 -0 -0 -0 -0 -0 -0 -0 -0 -78 -37 -47 -50 -52 -52 -54 -47 -56 -68 -113 -104 -84 -178 -257 -0 -0 -0 -0 -0 -1 -0 -0 -0 -0 -0 -0 -0 -14 -0 -0 -0 -0
-0 -0 -0 -0 -0 -0 -0 -0 -0 -0 -0 -0 -0 -0 -0 -0 -0 -47 -32 -32 -23 -32 -34 -43 -7 -45 -65 -112 -102 -67 -169 -220 -21 -0 -0 -0 -0 -0 -0 -0 -0 -0 -14 -234 -1 -0 -0 -0 -0
-0 -0 -0 -0 -0 -0 -0 -0 -0 -0 -0 -0 -0 -0 -0 -0 -0 -0 -19 -33 -20 -14 -21 -37 -9 -10 -38 -69 -81 -113 -133 -126 -201 -0 -0 -0 -0 -0 -0 -0 -0 -0 -15 -164 -0 -0 -0 -0 -0
-2 -5 -0 -0 -0 -0 -0 -0 -0 -0 -0 -0 -0 -0 -0 -0 -0 -0 -0 -0 -49 -21 -13 -16 -29 -4 -11 -21 -36 -54 -42 -91 -129 -191 -0 -0 -0 -0 -0 -0 -151 -228 -0 -0 -0 -0 -0 -0 -0
-2 -0 -0 -0 -0 -0 -0 -0 -0 -0 -0 -0 -0 -0 -0 -0 -0 -0 -0 -0 -0 -36 -14 -13 -23 -4 -26 -40 -14 -15 -3 -48 -58 -133 -177 -0 -0 -189 -192 -190 -185 -194 -61 -0 -0 -0 -0 -0 -0
-0 -0 -0 -0 -0 -0 -0 -0 -0 -0 -0 -0 -0 -0 -0 -0 -0 -0 -0 -0 -0 -0 -25 -18 -10 -24 -5 -46 -90 -57 -27 -11 -36 -86 -116 -127 -181 -129 -166 -158 -153 -31 -61 -0 -0 -0 -0 -0 -0
-0 -0 -0 -0 -0 -0 -0 -0 -0 -0 -0 -0 -0 -0 -0 -0 -0 -0 -0 -0 -0 -0 -0 -68 -27 -24 -32 -13 -57 -92 -27 -9 -5 -38 -75 -105 -107 -86 -108 -116 -75 -0 -0 -0 -0 -0 -0 -0 -0
-0 -0 -0 -0 -0 -0 -0 -0 -0 -0 -0 -0 -0 -0 -0 -0 -0 -0 -0 -0 -0 -0 -0 -0 -114 -52 -44 -30 -7 -50 -46 -4 -30 -6 -12 -54 -81 -56 -86 -92 -0 -0 -0 -0 -0 -0 -0 -0 -0
-0 -0 -0 -0 -0 -0 -0 -0 -0 -0 -0 -0 -0 -0 -0 -0 -0 -0 -0 -0 -0 -0 -0 -0 -0 -0 -1 -60 -18 -12 -49 -10 -0 -17 -29 -34 -67 -61 -32 -41 -15 -0 -34 -0 -0 -20 -0 -0 -0
-0 -0 -0 -0 -0 -0 -0 -0 -0 -0 -0 -0 -0 -0 -0 -0 -0 -0 -0 -0 -0 -0 -0 -0 -0 -0 -0 -8 -59 -22 -22 -17 -19 -26 -15 -18 -45 -68 -25 -18 -26 -25 -7 -16 -0 -0 -0 -0 -0
-0 -0 -0 -0 -0 -0 -0 -0 -0 -0 -0 -0 -0 -0 -0 -0 -0 -0 -0 -0 -0 -0 -0 -0 -0 -0 -0 -6 -69 -14 -11 -8 -18 -17 -22 -15 -31 -36 -24 -11 -23 -14 -5 -13 -0 -0 -0 -0 -0
-0 -0 -0 -0 -0 -0 -0 -0 -0 -0 -0 -0 -0 -0 -0 -0 -0 -0 -0 -0 -0 -0 -0 -0 -0 -0 -0 -142 -69 -36 -37 -52 -68 -74 -55 -35 -44 -38 -17 -20 -17 -8 -0 -6 -3 -0 -0 -0 -0
-0 -0 -0 -0 -0 -0 -0 -0 -0 -0 -0 -0 -0 -0 -0 -0 -0 -0 -0 -0 -0 -0 -0 -0 -0 -0 -0 -8 -50 -51 -45 -49 -87 -111 -78 -28 -22 -22 -9 -3 -6 -3 -0 -0 -4 -0 -0 -0 -0
-0 -0 -0 -0 -0 -0 -0 -0 -0 -0 -0 -0 -0 -0 -0 -0 -0 -0 -0 -0 -0 -0 -0 -0 -0 -0 -0 -25 -17 -23 -62 -77 -89 -106 -93 -73 -48 -26 -7 -2 -4 -5 -1 -3 -0 -0 -0 -0 -0
-0 -0 -0 -0 -0 -0 -0 -0 -0 -0 -0 -0 -0 -0 -0 -0 -0 -0 -0 -0 -0 -0 -0 -0 -0 -0 -23 -21 -8 -10 -52 -87 -119 -166 -181 -194 -110 -42 -0 -0 -1 -0 -0 -5 -0 -0 -0 -0 -0
-0 -0 -0 -0 -0 -0 -0 -0 -0 -0 -0 -0 -0 -0 -0 -0 -0 -0 -0 -0 -0 -0 -0 -0 -0 -3 -43 -12 -5 -3 -24 -85 -9 -10 -0 -174 -101 -68 -0 -0 -0 -0 -2 -0 -0 -0 -0 -0 -0
-0 -0 -0 -0 -0 -0 -0 -0 -0 -0 -0 -0 -0 -0 -0 -0 -0 -0 -0 -0 -0 -0 -0 -0 -0 -25 -19 -7 -2 -1 -65 -0 -0 -0 -215 -115 -45 -16 -0 -1 -0 -6 -5 -0 -0 -0 -0 -0 -0
-0 -0 -0 -0 -0 -0 -0 -0 -0 -0 -0 -0 -0 -0 -0 -0 -0 -0 -0 -0 -0 -0 -0 -0 -1 -6 -6 -9 -24 -0 -72 -92 -0 -150 -100 -38 -11 -0 -0 -4 -3 -13 -2 -0 -0 -0 -0 -0 -0
-0 -0 -0 -0 -0 -0 -0 -0 -0 -0 -0 -0 -0 -0 -0 -0 -0 -0 -0 -0 -0 -0 -0 -0 -0 -5 -3 -6 -0 -0 -0 -0 -32 -72 -31 -17 -0 -2 -2 -17 -1 -1 -0 -0 -0 -0 -0 -0 -0
-0 -0 -0 -0 -0 -0 -0 -0 -0 -0 -0 -0 -0 -0 -0 -0 -0 -0 -0 -0 -0 -0 -0 -16 -9 -22 -4 -0 -0 -0 -7 -114 -38 -32 -20 -0 -7 -13 -15 -10 -0 -0 -0 -0 -0 -0 -0 -0 -0
Wind_Speed
nan nan nan nan nan nan nan nan nan nan nan nan nan nan nan nan nan 29 31 30 37 34 32 31 31 32 32 33 35 35 34 34 33 31 nan nan nan nan nan nan nan nan nan nan nan nan nan nan nan
nan nan nan nan nan nan nan nan nan nan nan nan nan nan nan nan 31 nan 30 27 31 34 32 31 35 34 33 33 33 nan nan nan nan nan nan nan nan nan nan nan nan nan nan nan nan nan nan nan nan
nan nan nan nan nan nan nan nan nan nan nan nan nan nan nan nan nan 30 32 30 33 34 30 34 37 38 35 34 33 nan nan nan nan nan nan nan nan nan nan nan nan nan nan nan nan nan nan nan nan
nan nan nan nan nan nan nan nan nan nan nan nan nan nan nan nan nan 29 32 30 32 33 37 37 38 38 37 35 nan nan nan nan nan nan nan nan nan nan nan nan nan nan nan nan nan nan nan nan nan
nan nan nan nan nan nan nan nan nan nan nan nan nan nan nan nan 37 38 32 32 31 38 36 37 38 39 38 37 nan nan nan nan nan nan nan nan nan nan nan nan nan nan nan nan nan nan nan nan nan
nan nan nan nan nan nan nan nan nan nan nan nan nan nan nan nan 38 35 32 33 34 39 37 35 38 38 38 37 37 nan nan nan nan nan nan nan nan nan nan nan nan nan nan nan nan nan nan nan nan
nan nan nan nan nan nan nan nan nan nan nan nan nan nan nan nan 40 37 32 34 36 43 40 36 33 34 36 36 36 35 nan nan nan nan nan nan nan nan nan nan nan nan nan nan nan nan nan nan nan
nan nan nan nan nan nan nan nan nan nan nan nan nan nan nan 41 30 38 35 37 38 40 39 37 35 32 31 32 35 35 34 nan 30 nan nan nan nan nan nan nan nan nan nan nan nan nan nan nan nan
nan nan nan nan nan nan nan nan nan nan nan nan nan nan nan 40 28 34 36 37 38 37 39 36 37 35 33 33 32 34 35 31 nan nan nan nan nan nan nan nan nan nan nan nan nan nan nan nan nan
nan nan nan nan nan nan nan nan nan nan nan nan nan nan nan nan 33 33 33 35 38 37 35 40 35 37 34 34 36 33 nan nan nan nan nan nan nan nan nan nan nan nan nan nan nan nan nan nan nan
nan nan nan nan nan nan nan nan nan nan nan nan nan nan nan nan nan 29 29 31 33 36 37 36 39 37 39 34 33 32 nan nan nan nan nan nan nan nan nan nan nan nan nan nan nan nan nan nan nan
nan nan nan nan nan nan nan nan nan nan nan nan nan nan nan nan nan 25 24 27 31 33 33 35 40 38 38 37 32 32 31 nan nan nan nan nan nan nan nan nan nan nan nan nan nan nan nan nan nan
nan nan nan nan nan nan nan nan nan nan nan nan nan nan nan nan nan nan nan 22 25 32 34 32 33 40 36 37 34 33 30 30 nan nan nan nan nan nan nan nan nan nan nan nan nan nan nan nan nan
nan nan nan nan nan nan nan nan nan nan nan nan nan nan nan nan nan nan nan nan 27 30 37 35 32 34 40 34 34 34 32 32 32 30 nan nan nan nan nan nan nan nan nan nan nan nan nan nan nan
nan nan nan nan nan nan nan nan nan nan nan nan nan nan nan nan nan nan nan nan nan 30 37 37 35 31 35 37 33 32 32 34 33 32 nan nan nan nan nan nan nan nan nan nan nan nan nan nan nan
nan nan nan nan nan nan nan nan nan nan nan nan nan nan nan nan nan nan nan nan nan nan 33 34 30 31 30 32 38 34 32 36 34 34 34 nan nan 37 nan nan nan nan nan nan nan nan nan nan nan
nan nan nan nan nan nan nan nan nan nan nan nan nan nan nan nan nan nan nan nan nan nan nan nan 34 31 32 31 32 37 31 39 36 35 34 36 38 42 40 42 nan nan nan nan nan nan nan nan nan
nan nan nan nan nan nan nan nan nan nan nan nan nan nan nan nan nan nan nan nan nan nan nan nan nan 34 36 34 34 33 34 34 39 38 35 37 41 43 41 nan nan nan nan nan nan nan nan nan nan
nan nan nan nan nan nan nan nan nan nan nan nan nan nan nan nan nan nan nan nan nan nan nan nan nan nan nan 38 36 33 36 38 33 39 41 42 43 44 44 nan nan nan nan nan nan nan nan nan nan
nan nan nan nan nan nan nan nan nan nan nan nan nan nan nan nan nan nan nan nan nan nan nan nan nan nan nan nan 38 41 44 37 38 39 43 44 45 45 44 43 nan nan 45 nan nan nan nan nan nan
nan nan nan nan nan nan nan nan nan nan nan nan nan nan nan nan nan nan nan nan nan nan nan nan nan nan nan nan 53 53 50 41 41 42 43 43 46 44 45 44 44 46 43 nan nan nan nan nan nan
nan nan nan nan nan nan nan nan nan nan nan nan nan nan nan nan nan nan nan nan nan nan nan nan nan nan nan nan 56 51 47 43 42 44 44 44 45 47 47 47 46 46 45 nan nan nan nan nan nan
nan nan nan nan nan nan nan nan nan nan nan nan nan nan nan nan nan nan nan nan nan nan nan nan nan nan nan nan 56 53 53 49 48 51 52 48 45 44 46 45 46 46 46 nan nan nan nan nan nan
nan nan nan nan nan nan nan nan nan nan nan nan nan nan nan nan nan nan nan nan nan nan nan nan nan nan nan 55 58 59 57 54 51 51 51 48 45 44 45 45 41 44 nan nan nan nan nan nan nan
nan nan nan nan nan nan nan nan nan nan nan nan nan nan nan nan nan nan nan nan nan nan nan nan nan nan nan 59 61 57 57 56 51 52 nan nan 46 43 45 45 46 44 45 nan nan nan nan nan nan
nan nan nan nan nan nan nan nan nan nan nan nan nan nan nan nan nan nan nan nan nan nan nan nan nan nan nan 61 61 61 59 nan nan nan nan nan nan nan 46 44 48 47 nan nan nan nan nan nan nan
nan nan nan nan nan nan nan nan nan nan nan nan nan nan nan nan nan nan nan nan nan nan nan nan nan nan 58 59 64 60 nan nan nan nan nan nan 49 47 46 48 48 nan nan nan nan nan nan nan nan
nan nan nan nan nan nan nan nan nan nan nan nan nan nan nan nan nan nan nan nan nan nan nan nan nan nan nan nan nan nan nan nan nan nan 53 53 48 46 47 47 47 nan nan nan nan nan nan nan nan
nan nan nan nan nan nan nan nan nan nan nan nan nan nan nan nan nan nan nan nan nan nan nan nan nan nan nan nan nan nan nan nan nan 50 52 52 50 47 46 nan nan nan nan nan nan nan nan nan nan
nan nan nan nan nan nan nan nan nan nan nan nan nan nan nan nan nan nan nan nan nan nan nan nan nan nan nan nan nan nan nan nan 51 51 52 51 49 nan nan nan nan nan nan nan nan nan nan nan nan
Wind_Direction
nan nan nan nan nan nan nan nan nan nan nan nan nan nan nan nan nan 251 255 260 272 274 274 276 276 272 273 275 275 274 273 274 278 279 nan nan nan nan nan nan nan nan nan nan nan nan nan nan nan
nan nan nan nan nan nan nan nan nan nan nan nan nan nan nan nan 251 nan 256 267 273 274 274 275 283 278 275 274 272 nan nan nan nan nan nan nan nan nan nan nan nan nan nan nan nan nan nan nan nan
nan nan nan nan nan nan nan nan nan nan nan nan nan nan nan nan nan 272 266 272 275 275 277 271 276 279 275 271 268 nan nan nan nan nan nan nan nan nan nan nan nan nan nan nan nan nan nan nan nan
nan nan nan nan nan nan nan nan nan nan nan nan nan nan nan nan nan 259 267 269 267 276 274 274 275 277 279 279 nan nan nan nan nan nan nan nan nan nan nan nan nan nan nan nan nan nan nan nan nan
nan nan nan nan nan nan nan nan nan nan nan nan nan nan nan nan 258 263 269 271 267 264 272 276 280 276 277 277 nan nan nan nan nan nan nan nan nan nan nan nan nan nan nan nan nan nan nan nan nan
nan nan nan nan nan nan nan nan nan nan nan nan nan nan nan nan 262 265 266 269 270 273 272 270 276 278 277 276 274 nan nan nan nan nan nan nan nan nan nan nan nan nan nan nan nan nan nan nan nan
nan nan nan nan nan nan nan nan nan nan nan nan nan nan nan nan 258 263 266 266 267 275 274 274 273 277 282 283 282 279 nan nan nan nan nan nan nan nan nan nan nan nan nan nan nan nan nan nan nan
nan nan nan nan nan nan nan nan nan nan nan nan nan nan nan 260 264 263 262 263 266 268 277 280 282 279 277 278 285 285 285 nan 286 nan nan nan nan nan nan nan nan nan nan nan nan nan nan nan nan
nan nan nan nan nan nan nan nan nan nan nan nan nan nan nan 265 271 265 261 262 264 266 274 281 285 285 288 284 281 283 286 288 nan nan nan nan nan nan nan nan nan nan nan nan nan nan nan nan nan
nan nan nan nan nan nan nan nan nan nan nan nan nan nan nan nan 270 271 266 264 264 268 270 274 280 284 283 285 285 284 nan nan nan nan nan nan nan nan nan nan nan nan nan nan nan nan nan nan nan
nan nan nan nan nan nan nan nan nan nan nan nan nan nan nan nan nan 272 267 270 269 267 267 272 281 281 281 279 281 282 nan nan nan nan nan nan nan nan nan nan nan nan nan nan nan nan nan nan nan
nan nan nan nan nan nan nan nan nan nan nan nan nan nan nan nan nan 274 267 269 279 278 272 270 277 280 281 278 280 279 281 nan nan nan nan nan nan nan nan nan nan nan nan nan nan nan nan nan nan
nan nan nan nan nan nan nan nan nan nan nan nan nan nan nan nan nan nan nan 266 262 280 283 278 271 282 279 281 280 282 282 281 nan nan nan nan nan nan nan nan nan nan nan nan nan nan nan nan nan
nan nan nan nan nan nan nan nan nan nan nan nan nan nan nan nan nan nan nan nan 271 276 281 281 276 274 278 273 280 283 282 281 280 280 nan nan nan nan nan nan nan nan nan nan nan nan nan nan nan
nan nan nan nan nan nan nan nan nan nan nan nan nan nan nan nan nan nan nan nan nan 263 274 280 282 279 283 279 267 266 276 281 277 280 nan nan nan nan nan nan nan nan nan nan nan nan nan nan nan
nan nan nan nan nan nan nan nan nan nan nan nan nan nan nan nan nan nan nan nan nan nan 267 276 281 281 280 281 278 269 265 276 281 283 280 nan nan 283 nan nan nan nan nan nan nan nan nan nan nan
nan nan nan nan nan nan nan nan nan nan nan nan nan nan nan nan nan nan nan nan nan nan nan nan 276 279 282 281 279 279 274 274 277 275 282 285 282 279 281 279 nan nan nan nan nan nan nan nan nan
nan nan nan nan nan nan nan nan nan nan nan nan nan nan nan nan nan nan nan nan nan nan nan nan nan 274 274 274 275 276 278 277 277 278 278 287 282 284 283 nan nan nan nan nan nan nan nan nan nan
nan nan nan nan nan nan nan nan nan nan nan nan nan nan nan nan nan nan nan nan nan nan nan nan nan nan nan 266 275 277 275 271 270 271 275 278 280 281 282 nan nan nan nan nan nan nan nan nan nan
nan nan nan nan nan nan nan nan nan nan nan nan nan nan nan nan nan nan nan nan nan nan nan nan nan nan nan nan 267 266 265 264 266 270 267 266 271 276 280 285 nan nan 287 nan nan nan nan nan nan
nan nan nan nan nan nan nan nan nan nan nan nan nan nan nan nan nan nan nan nan nan nan nan nan nan nan nan nan 258 260 265 263 265 264 267 269 273 275 279 280 282 284 286 nan nan nan nan nan nan
nan nan nan nan nan nan nan nan nan nan nan nan nan nan nan nan nan nan nan nan nan nan nan nan nan nan nan nan 260 270 268 269 266 269 270 273 275 276 281 284 288 289 290 nan nan nan nan nan nan
nan nan nan nan nan nan nan nan nan nan nan nan nan nan nan nan nan nan nan nan nan nan nan nan nan nan nan nan 260 260 264 263 265 267 272 274 273 276 280 285 288 290 289 nan nan nan nan nan nan
nan nan nan nan nan nan nan nan nan nan nan nan nan nan nan nan nan nan nan nan nan nan nan nan nan nan nan 258 259 260 265 266 265 268 269 271 272 276 280 284 284 286 nan nan nan nan nan nan nan
nan nan nan nan nan nan nan nan nan nan nan nan nan nan nan nan nan nan nan nan nan nan nan nan nan nan nan 254 256 256 258 261 265 268 nan nan 274 275 277 282 285 286 287 nan nan nan nan nan nan
nan nan nan nan nan nan nan nan nan nan nan nan nan nan nan nan nan nan nan nan nan nan nan nan nan nan nan 255 254 253 254 nan nan nan nan nan nan nan 279 282 284 287 nan nan nan nan nan nan nan
nan nan nan nan nan nan nan nan nan nan nan nan nan nan nan nan nan nan nan nan nan nan nan nan nan nan 251 248 249 254 nan nan nan nan nan nan 270 273 277 279 285 nan nan nan nan nan nan nan nan
nan nan nan nan nan nan nan nan nan nan nan nan nan nan nan nan nan nan nan nan nan nan nan nan nan nan nan nan nan nan nan nan nan nan 263 267 270 272 276 278 283 nan nan nan nan nan nan nan nan
nan nan nan nan nan nan nan nan nan nan nan nan nan nan nan nan nan nan nan nan nan nan nan nan nan nan nan nan nan nan nan nan nan 258 261 266 270 272 272 nan nan nan nan nan nan nan nan nan nan
nan nan nan nan nan nan nan nan nan nan nan nan nan nan nan nan nan nan nan nan nan nan nan nan nan nan nan nan nan nan nan nan 257 258 261 265 267 nan nan nan nan nan nan nan nan nan nan nan nan